Weather History for Valentine, NE

Change the Weather History Date:

Saturday, November 10, 2012

  Actual Average Record
Temperature  
Mean Temperature 28 °F 37 °F  
Max Temperature 38 °F 51 °F 81 °F (1958)
Min Temperature 18 °F 24 °F -15 °F (1986)
Degree Days  
Heating Degree Days 37 28  
Month to date heating degree days 249 255  
Since 1 July heating degree days 919 957  
Cooling Degree Days 0 0  
Month to date cooling degree days 0 0  
Year to date cooling degree days 1303 821  
Moisture  
Dew Point 29 °F    
Average Humidity 90    
Maximum Humidity 100    
Minimum Humidity 80    
Precipitation  
Precipitation 0.08 in 0.02 in 0.85 in (1940)
Month to date precipitation 0.09 0.26  
Year to date precipitation 10.01 19.26  
Snow  
Snow 0.70 in 0.10 in 8.50 in (1940)
Month to date snowfall 0.7 1.6  
Since 1 July snowfall 3.7 3.8  
Since 1 September snowfall 3.7 3.8  
Snow Depth T in    
Sea Level Pressure  
Sea Level Pressure 29.66 in    
Wind  
Wind Speed 13 mph (NW)    
Max Wind Speed 35 mph    
Max Gust Speed 45 mph    
Visibility 5 miles    
Events Fog , Snow    
T = Trace of Precipitation, MM = Missing Value Source: NWS Daily Summary

Daily Weather History Graph

Daily Weather History Graph

Search for Another Location

Airport:

Trip Planner

Search our weather history database for the weather conditions in past years. The results will help you decide how hot, cold, wet, or windy it might be!

Date:

Astronomy

Nov. 10, 2012 Rise Set
Actual Time 7:28 AM CST 5:23 PM CST
Civil Twilight 6:58 AM CST 5:53 PM CST
Nautical Twilight 6:24 AM CST 6:27 PM CST
Astronomical Twilight 5:51 AM CST 7:00 PM CST
Moon 3:30 AM CST (11/10) 3:15 PM CST (11/10)
Length of Visible Light 10h 55m
Length of Day
9h 54m
Waning Crescent, 14% of the Moon is Illuminated
Nov 10
Waning Crescent
Nov 13
New
Nov 20
First Quarter
Nov 28
Full
Dec 6
Last Quarter

Hourly Weather History & Observations

Time (CST) Temp. Windchill Dew Point Humidity Pressure Visibility Wind Dir Wind Speed Gust Speed Precip Events Conditions
12:09 AM 37.4 °F 34.9 °F 35.6 °F 93% 29.63 in 4.0 mi East 3.5 mph - N/A   Overcast
12:52 AM 37.0 °F - 36.0 °F 96% 29.68 in 4.0 mi Calm Calm - N/A   Overcast
1:52 AM 37.0 °F - 36.0 °F 96% 29.65 in 2.5 mi Calm Calm - N/A   Overcast
2:06 AM 37.4 °F 34.9 °F 35.6 °F 93% 29.59 in 1.2 mi NNW 3.5 mph - N/A   Overcast
2:13 AM 37.4 °F 34.9 °F 35.6 °F 93% 29.59 in 0.8 mi North 3.5 mph - N/A   Overcast
2:52 AM 37.0 °F 34.5 °F 36.0 °F 96% 29.64 in 0.5 mi WNW 3.5 mph - N/A Fog Fog
3:52 AM 37.0 °F 32.4 °F 36.0 °F 96% 29.62 in 0.5 mi NW 5.8 mph - N/A Fog Fog
4:37 AM 37.4 °F 33.8 °F 35.6 °F 93% 29.57 in 1.0 mi NW 4.6 mph - N/A   Overcast
4:52 AM 37.0 °F 33.3 °F 36.0 °F 96% 29.62 in 1.0 mi WNW 4.6 mph - N/A   Overcast
5:02 AM 35.6 °F 30.7 °F 35.6 °F 100% 29.57 in 1.2 mi NW 5.8 mph - N/A   Overcast
5:32 AM 35.6 °F 30.7 °F 35.6 °F 100% 29.57 in 3.0 mi NW 5.8 mph - N/A   Overcast
5:52 AM 36.0 °F 29.6 °F 35.1 °F 97% 29.61 in 2.5 mi WNW 8.1 mph - N/A   Overcast
6:02 AM 35.6 °F 30.7 °F 35.6 °F 100% 29.57 in 5.0 mi WNW 5.8 mph - N/A   Overcast
6:52 AM 36.0 °F 31.1 °F 35.1 °F 97% 29.61 in 3.0 mi NW 5.8 mph - N/A   Overcast
7:21 AM 35.6 °F 28.0 °F 33.8 °F 93% 29.55 in 3.0 mi NW 10.4 mph - N/A   Overcast
7:30 AM 35.6 °F 29.2 °F 33.8 °F 93% 29.57 in 6.0 mi WNW 8.1 mph - N/A   Overcast
7:42 AM 35.6 °F 29.2 °F 33.8 °F 93% 29.58 in 7.0 mi WNW 8.1 mph - N/A   Overcast
7:52 AM 35.1 °F 27.4 °F 34.0 °F 96% 29.65 in 9.0 mi West 10.4 mph - N/A   Overcast
8:52 AM 36.0 °F 30.3 °F 34.0 °F 93% 29.65 in 4.0 mi NW 6.9 mph - N/A   Overcast
9:41 AM 35.6 °F 26.6 °F 33.8 °F 93% 29.59 in 6.0 mi NNW 13.8 mph - N/A   Overcast
9:52 AM 36.0 °F 29.6 °F 34.0 °F 93% 29.64 in 5.0 mi WNW 8.1 mph - N/A   Overcast
10:38 AM 37.4 °F 32.1 °F 35.6 °F 93% 29.56 in 10.0 mi NW 6.9 mph - N/A   Overcast
10:52 AM 37.9 °F 32.7 °F 36.0 °F 93% 29.62 in 6.0 mi WNW 6.9 mph - N/A   Overcast
11:52 AM 37.9 °F 31.5 °F 36.0 °F 93% 29.61 in 6.0 mi NW 9.2 mph - N/A   Overcast
12:36 PM 35.6 °F 25.9 °F 33.8 °F 93% 29.56 in 6.0 mi NW 16.1 mph - N/A   Overcast
12:52 PM 36.0 °F 26.7 °F 34.0 °F 93% 29.61 in 9.0 mi NW 15.0 mph - N/A   Overcast
1:40 PM 35.6 °F 25.2 °F 33.8 °F 93% 29.56 in 8.0 mi NNW 18.4 mph 24.2 mph N/A   Overcast
1:49 PM 35.6 °F 25.2 °F 32.0 °F 87% 29.55 in 9.0 mi NNW 18.4 mph 24.2 mph N/A   Overcast
1:52 PM 35.1 °F 25.5 °F 32.0 °F 89% 29.61 in 9.0 mi NNW 15.0 mph 23.0 mph N/A   Overcast
1:59 PM 35.6 °F 24.8 °F 32.0 °F 87% 29.55 in 9.0 mi NNW 19.6 mph 29.9 mph N/A   Overcast
2:15 PM 33.8 °F 23.9 °F 32.0 °F 93% 29.55 in 10.0 mi NNW 15.0 mph 26.5 mph N/A   Overcast
2:52 PM 34.0 °F 24.6 °F 30.9 °F 89% 29.62 in 10.0 mi NNW 13.8 mph 23.0 mph N/A   Overcast
3:40 PM 32.0 °F 22.5 °F 30.2 °F 93% 29.59 in 4.0 mi NNW 12.7 mph 24.2 mph 0.00 in Snow Light Snow
3:52 PM 32.0 °F 20.5 °F 28.9 °F 88% 29.68 in 2.0 mi NW 18.4 mph 27.6 mph 0.01 in Snow Light Snow
4:02 PM 30.2 °F 17.1 °F 28.4 °F 93% 29.63 in 1.0 mi NW 21.9 mph 28.8 mph 0.01 in Snow Light Snow
4:07 PM 30.2 °F 17.4 °F 28.4 °F 93% 29.62 in 0.5 mi NNW 20.7 mph 28.8 mph 0.02 in Fog , Snow Snow
4:27 PM 30.2 °F 19.3 °F 28.4 °F 93% 29.63 in 0.2 mi NW 15.0 mph 28.8 mph 0.06 in Fog , Snow Heavy Snow
4:43 PM 28.4 °F 14.7 °F 26.6 °F 93% 29.64 in 0.8 mi NNW 21.9 mph 33.4 mph 0.07 in Snow Light Snow
4:48 PM 28.4 °F 16.2 °F 24.8 °F 86% 29.65 in 1.2 mi NNW 17.3 mph 28.8 mph 0.07 in Snow Light Snow
4:52 PM 28.0 °F 16.1 °F 25.0 °F 88% 29.72 in 1.8 mi NNW 16.1 mph 28.8 mph 0.07 in Snow Light Snow
4:54 PM 28.4 °F 14.7 °F 24.8 °F 86% 29.65 in 2.0 mi NW 21.9 mph 28.8 mph 0.00 in Snow Light Snow
5:00 PM 26.6 °F 12.4 °F 24.8 °F 93% 29.66 in 4.0 mi NW 21.9 mph 29.9 mph 0.00 in Snow Light Snow
5:52 PM 25.0 °F 8.4 °F 21.0 °F 85% 29.72 in 3.0 mi NNW 28.8 mph 36.8 mph 0.00 in Snow Light Snow
6:52 PM 24.1 °F 7.7 °F 19.0 °F 81% 29.79 in 4.0 mi NW 26.5 mph 43.7 mph 0.00 in Snow Light Snow
7:52 PM 21.9 °F 6.5 °F 17.1 °F 82% 29.81 in 4.0 mi NNW 20.7 mph 32.2 mph 0.00 in Snow Light Snow
8:33 PM 21.2 °F 4.9 °F 15.8 °F 80% 29.77 in 8.0 mi NNW 23.0 mph 31.1 mph 0.00 in   Overcast
8:52 PM 19.9 °F 4.3 °F 15.1 °F 81% 29.88 in 6.0 mi NW 19.6 mph 27.6 mph 0.00 in Snow Light Snow
9:30 PM 19.4 °F 1.4 °F 14.0 °F 80% 29.80 in 10.0 mi NW 26.5 mph 36.8 mph 0.00 in   Overcast
9:47 PM 19.4 °F 2.5 °F 12.2 °F 74% 29.79 in 10.0 mi NW 23.0 mph 29.9 mph 0.00 in   Overcast
9:52 PM 19.0 °F 2.4 °F 12.9 °F 77% 29.89 in 10.0 mi NW 21.9 mph 29.9 mph 0.00 in   Overcast
10:36 PM 17.6 °F 1.7 °F 12.2 °F 79% 29.81 in 10.0 mi NNW 18.4 mph 26.5 mph N/A   Overcast
10:52 PM 18.0 °F -1.4 °F 12.0 °F 78% 29.89 in 10.0 mi NNW 29.9 mph 38.0 mph N/A   Overcast
11:52 PM 18.0 °F 3.1 °F 10.9 °F 74% 29.95 in 10.0 mi NNW 16.1 mph 25.3 mph 0.00 in   Overcast